Weather History for Huntingburg, IN

Change the Weather History Date:

Monday, February 18, 2013

  Actual Average Record
Temperature  
Mean Temperature 46 °F -  
Max Temperature 60 °F 44 °F 64 °F (1997)
Min Temperature 32 °F 29 °F 10 °F (2007)
Degree Days  
Heating Degree Days 19    
Moisture  
Dew Point 31 °F    
Average Humidity 58    
Maximum Humidity 87    
Minimum Humidity 34    
Precipitation  
Precipitation 0.37 in - - ()
Sea Level Pressure  
Sea Level Pressure 29.94 in    
Wind  
Wind Speed 14 mph (South)    
Max Wind Speed 30 mph    
Max Gust Speed 40 mph    
Visibility 10 miles    
Events      
Averages and records for this station are not official NWS values.
T = Trace of Precipitation, MM = Missing Value Source: NWS Daily Summary

Daily Weather History Graph

Daily Weather History Graph

Search for Another Location

Airport:

Trip Planner

Search our weather history database for the weather conditions in past years. The results will help you decide how hot, cold, wet, or windy it might be!

Date:

Astronomy

Feb. 18, 2013 Rise Set
Actual Time 7:34 AM EST 6:29 PM EST
Civil Twilight 7:07 AM EST 6:56 PM EST
Nautical Twilight 6:36 AM EST 7:27 PM EST
Astronomical Twilight 6:05 AM EST 7:58 PM EST
Moon 12:17 PM EST (2/18) 2:11 AM EST (2/18)
Length of Visible Light 11h 49m
Length of Day
10h 55m
First Quarter, 58% of the Moon is Illuminated
Feb 18
First Quarter
Feb 25
Full
Mar 4
Last Quarter
Mar 11
New
Mar 19
First Quarter

Hourly Weather History & Observations

Time (EST) Temp. Windchill Dew Point Humidity Pressure Visibility Wind Dir Wind Speed Gust Speed Precip Events Conditions
12:15 AM 33.8 °F 25.3 °F 17.6 °F 52% 30.13 in 10.0 mi SE 11.5 mph - N/A   Clear
12:35 AM 32.0 °F 23.0 °F 17.6 °F 55% 30.13 in 10.0 mi SE 11.5 mph - N/A   Clear
12:55 AM 33.8 °F 25.3 °F 17.6 °F 52% 30.12 in 10.0 mi SE 11.5 mph - N/A   Clear
1:35 AM 33.8 °F 27.0 °F 17.6 °F 52% 30.12 in 10.0 mi SSE 8.1 mph - N/A   Clear
1:55 AM 33.8 °F 26.4 °F 17.6 °F 52% 30.12 in 10.0 mi SE 9.2 mph - N/A   Clear
2:15 AM 33.8 °F 26.4 °F 17.6 °F 52% 30.11 in 10.0 mi SE 9.2 mph - N/A   Clear
2:35 AM 33.8 °F 26.4 °F 17.6 °F 52% 30.10 in 10.0 mi SE 9.2 mph - N/A   Clear
3:15 AM 33.8 °F 26.4 °F 17.6 °F 52% 30.08 in 10.0 mi SSE 9.2 mph - N/A   Clear
3:35 AM 33.8 °F 26.4 °F 17.6 °F 52% 30.08 in 10.0 mi SSE 9.2 mph - N/A   Clear
3:55 AM 33.8 °F 27.7 °F 17.6 °F 52% 30.07 in 10.0 mi SE 6.9 mph - N/A   Clear
4:15 AM 33.8 °F 27.0 °F 17.6 °F 52% 30.07 in 10.0 mi SSE 8.1 mph - N/A   Clear
4:35 AM 35.6 °F 29.2 °F 19.4 °F 52% 30.06 in 10.0 mi SSE 8.1 mph - N/A   Clear
4:55 AM 35.6 °F 28.6 °F 19.4 °F 52% 30.05 in 10.0 mi SSE 9.2 mph - N/A   Clear
5:15 AM 35.6 °F 28.6 °F 19.4 °F 52% 30.06 in 10.0 mi SSE 9.2 mph - N/A   Clear
5:35 AM 35.6 °F 29.9 °F 19.4 °F 52% 30.06 in 10.0 mi SSE 6.9 mph - N/A   Clear
5:55 AM 35.6 °F 29.2 °F 19.4 °F 52% 30.06 in 10.0 mi SSE 8.1 mph - N/A   Clear
6:15 AM 35.6 °F 29.2 °F 21.2 °F 56% 30.06 in 10.0 mi SSE 8.1 mph - N/A   Clear
6:35 AM 35.6 °F 29.2 °F 21.2 °F 56% 30.06 in 10.0 mi South 8.1 mph - N/A   Clear
6:55 AM 35.6 °F 29.9 °F 21.2 °F 56% 30.05 in 10.0 mi SSE 6.9 mph - N/A   Clear
7:15 AM 35.6 °F 29.2 °F 21.2 °F 56% 30.05 in 10.0 mi South 8.1 mph - N/A   Clear
7:35 AM 37.4 °F 31.4 °F 23.0 °F 56% 30.05 in 10.0 mi South 8.1 mph - N/A   Clear
7:55 AM 37.4 °F 31.4 °F 23.0 °F 56% 30.05 in 10.0 mi SSE 8.1 mph - N/A   Clear
8:15 AM 37.4 °F 29.8 °F 24.8 °F 60% 30.04 in 10.0 mi South 11.5 mph - N/A   Clear
8:35 AM 39.2 °F 31.6 °F 24.8 °F 56% 30.04 in 10.0 mi South 12.7 mph 17.3 mph N/A   Clear
9:15 AM 42.8 °F 34.3 °F 28.4 °F 57% 30.04 in 10.0 mi South 19.6 mph 26.5 mph N/A   Clear
9:35 AM 42.8 °F 34.3 °F 28.4 °F 57% 30.03 in 10.0 mi South 19.6 mph 24.2 mph N/A   Clear
9:55 AM 44.6 °F 36.6 °F 30.2 °F 57% 30.03 in 10.0 mi South 19.6 mph 29.9 mph N/A   Clear
10:15 AM 46.4 °F 38.7 °F 33.8 °F 62% 30.03 in 10.0 mi South 20.7 mph 26.5 mph N/A   Clear
10:35 AM 48.2 °F - 35.6 °F 62% 30.02 in 10.0 mi SSW 18.4 mph 32.2 mph N/A   Clear
10:55 AM 48.2 °F - 35.6 °F 62% 30.01 in 10.0 mi South 18.4 mph 28.8 mph N/A   Clear
11:15 AM 51.8 °F - 37.4 °F 58% 30.00 in 10.0 mi South 20.7 mph 29.9 mph N/A   Clear
11:35 AM 51.8 °F - 37.4 °F 58% 30.00 in 10.0 mi South 17.3 mph 27.6 mph N/A   Clear
11:55 AM 53.6 °F - 37.4 °F 54% 29.99 in 10.0 mi South 23.0 mph 31.1 mph N/A   Clear
12:15 PM 53.6 °F - 39.2 °F 58% 29.98 in 10.0 mi South 20.7 mph 29.9 mph N/A   Clear
12:35 PM 55.4 °F - 39.2 °F 54% 29.97 in 10.0 mi South 23.0 mph 26.5 mph N/A   Clear
12:55 PM 55.4 °F - 37.4 °F 51% 29.96 in 10.0 mi South 19.6 mph 31.1 mph N/A   Clear
1:15 PM 55.4 °F - 37.4 °F 51% 29.94 in 10.0 mi South 23.0 mph 34.5 mph N/A   Clear
1:35 PM 57.2 °F - 37.4 °F 48% 29.93 in 10.0 mi South 25.3 mph 32.2 mph N/A   Clear
1:55 PM 59.0 °F - 35.6 °F 42% 29.92 in 10.0 mi South 26.5 mph 34.5 mph N/A   Mostly Cloudy
2:15 PM 57.2 °F - 33.8 °F 41% 29.91 in 10.0 mi South 23.0 mph 31.1 mph N/A   Mostly Cloudy
2:35 PM 59.0 °F - 33.8 °F 39% 29.90 in 10.0 mi SSW 21.9 mph 35.7 mph N/A   Mostly Cloudy
2:55 PM 60.8 °F - 33.8 °F 36% 29.88 in 10.0 mi South 24.2 mph 34.5 mph N/A   Mostly Cloudy
3:15 PM 59.0 °F - 32.0 °F 36% 29.86 in 10.0 mi South 26.5 mph 36.8 mph N/A   Partly Cloudy
3:35 PM 60.8 °F - 33.8 °F 36% 29.85 in 10.0 mi South 23.0 mph 40.3 mph N/A   Scattered Clouds
3:55 PM 59.0 °F - 30.2 °F 34% 29.85 in 10.0 mi South 21.9 mph 32.2 mph N/A   Mostly Cloudy
4:15 PM 57.2 °F - 32.0 °F 38% 29.85 in 10.0 mi South 17.3 mph 23.0 mph N/A   Overcast
4:35 PM 57.2 °F - 30.2 °F 36% 29.84 in 10.0 mi South 17.3 mph 25.3 mph N/A   Overcast
4:55 PM 57.2 °F - 30.2 °F 36% 29.84 in 10.0 mi SSW 18.4 mph 21.9 mph N/A   Overcast
5:15 PM 55.4 °F - 33.8 °F 44% 29.82 in 10.0 mi South 15.0 mph 29.9 mph N/A   Overcast
5:35 PM 57.2 °F - 33.8 °F 41% 29.81 in 10.0 mi South 18.4 mph 28.8 mph N/A   Mostly Cloudy
6:15 PM 53.6 °F - 37.4 °F 54% 29.82 in 10.0 mi South 17.3 mph 25.3 mph N/A   Overcast
6:35 PM 51.8 °F - 39.2 °F 62% 29.82 in 10.0 mi SSW 28.8 mph 34.5 mph 0.01 in   Overcast
6:55 PM 48.2 °F - 41.0 °F 76% 29.80 in 9.0 mi South 17.3 mph 29.9 mph 0.07 in   Mostly Cloudy
7:15 PM 48.2 °F - 41.0 °F 76% 29.81 in 10.0 mi South 13.8 mph 20.7 mph N/A   Overcast
7:35 PM 48.2 °F - 42.8 °F 82% 29.80 in 10.0 mi SSE 11.5 mph 19.6 mph 0.05 in   Overcast
7:55 PM 48.2 °F - 42.8 °F 82% 29.78 in 10.0 mi SSE 11.5 mph 16.1 mph 0.10 in   Overcast
8:35 PM 48.2 °F - 42.8 °F 82% 29.76 in 10.0 mi SSE 11.5 mph - 0.04 in   Overcast
8:55 PM 48.2 °F - 42.8 °F 82% 29.76 in 10.0 mi SSE 19.6 mph 26.5 mph 0.08 in   Overcast
9:15 PM 46.4 °F 39.8 °F 42.8 °F 87% 29.73 in 10.0 mi SSE 16.1 mph 25.3 mph 0.02 in   Overcast
9:35 PM 48.2 °F - 42.8 °F 82% 29.73 in 10.0 mi South 16.1 mph 25.3 mph 0.03 in   Overcast
9:55 PM 48.2 °F - 42.8 °F 82% 29.72 in 10.0 mi SSE 17.3 mph 26.5 mph 0.07 in   Overcast
10:15 PM 46.4 °F 38.1 °F 42.8 °F 87% 29.72 in 8.0 mi South 24.2 mph 29.9 mph 0.03 in   Overcast
10:35 PM 46.4 °F 37.7 °F 42.8 °F 87% 29.73 in 8.0 mi South 26.5 mph 35.7 mph 0.05 in   Overcast
11:15 PM 46.4 °F 37.2 °F 42.8 °F 87% 29.71 in 10.0 mi South 29.9 mph 40.3 mph N/A   Mostly Cloudy
11:35 PM 46.4 °F 38.1 °F 42.8 °F 87% 29.70 in 9.0 mi South 24.2 mph 39.1 mph N/A   Mostly Cloudy
11:55 PM 46.4 °F 39.8 °F 42.8 °F 87% 29.71 in 10.0 mi South 16.1 mph 26.5 mph N/A   Overcast